Weather History for Hailey, ID

Change the Weather History Date:

Thursday, April 5, 2012

  Actual Average Record
Temperature  
Mean Temperature 34 °F -  
Max Temperature 42 °F 49 °F 69 °F (2002)
Min Temperature 26 °F 27 °F 17 °F (1997)
Degree Days  
Heating Degree Days 31    
Moisture  
Dew Point 16 °F    
Average Humidity 51    
Maximum Humidity 75    
Minimum Humidity 26    
Precipitation  
Precipitation 0.00 in - - ()
Sea Level Pressure  
Sea Level Pressure 29.84 in    
Wind  
Wind Speed 5 mph (WSW)    
Max Wind Speed 12 mph    
Max Gust Speed 20 mph    
Visibility 10 miles    
Events      
Averages and records for this station are not official NWS values.
T = Trace of Precipitation, MM = Missing Value Source: NWS Daily Summary

Daily Weather History Graph

Daily Weather History Graph

Search for Another Location

Airport:

Trip Planner

Search our weather history database for the weather conditions in past years. The results will help you decide how hot, cold, wet, or windy it might be!

Date:

Astronomy

Apr. 05, 2012 Rise Set
Actual Time 7:10 AM MDT 8:09 PM MDT
Civil Twilight 6:41 AM MDT 8:38 PM MDT
Nautical Twilight 6:06 AM MDT 9:13 PM MDT
Astronomical Twilight 5:30 AM MDT 9:49 PM MDT
Moon 7:20 PM MDT (4/5) 6:10 AM MDT (4/5)
Length of Visible Light 13h 56m
Length of Day
12h 58m
Waxing Gibbous, 98% of the Moon is Illuminated
Apr 5
Waxing Gibbous
Apr 6
Full
Apr 13
Last Quarter
Apr 21
New
Apr 29
First Quarter

Hourly Weather History & Observations

Time (MDT) Temp. Windchill Dew Point Humidity Pressure Visibility Wind Dir Wind Speed Gust Speed Precip Events Conditions
12:15 AM 35.6 °F 28.6 °F 10.4 °F 35% 29.85 in 10.0 mi NW 9.2 mph - N/A   Overcast
12:35 AM 33.8 °F 25.8 °F 10.4 °F 38% 29.84 in 10.0 mi NW 10.4 mph - N/A   Overcast
12:55 AM 33.8 °F 28.6 °F 10.4 °F 38% 29.85 in 10.0 mi NW 5.8 mph - N/A   Overcast
1:15 AM 33.8 °F 28.6 °F 12.2 °F 41% 29.85 in 10.0 mi NNW 5.8 mph - N/A   Overcast
1:35 AM 33.8 °F 28.6 °F 12.2 °F 41% 29.86 in 10.0 mi NNW 5.8 mph - N/A   Overcast
1:55 AM 33.8 °F 30.8 °F 12.2 °F 41% 29.86 in 10.0 mi WNW 3.5 mph - N/A   Overcast
2:15 AM 32.0 °F 28.7 °F 19.4 °F 60% 29.86 in 10.0 mi SSE 3.5 mph - N/A   Overcast
2:35 AM 32.0 °F - 19.4 °F 60% 29.85 in 10.0 mi Calm Calm - N/A   Overcast
2:55 AM 32.0 °F 28.7 °F 19.4 °F 60% 29.84 in 10.0 mi ESE 3.5 mph - N/A   Overcast
3:15 AM 32.0 °F - 19.4 °F 60% 29.85 in 10.0 mi Calm Calm - N/A   Mostly Cloudy
3:35 AM 32.0 °F 27.5 °F 19.4 °F 60% 29.87 in 10.0 mi SSE 4.6 mph - N/A   Mostly Cloudy
3:55 AM 30.2 °F 26.7 °F 23.0 °F 75% 29.87 in 10.0 mi SSE 3.5 mph - N/A   Overcast
4:15 AM 30.2 °F 26.7 °F 23.0 °F 75% 29.87 in 10.0 mi SSE 3.5 mph - N/A   Scattered Clouds
4:35 AM 30.2 °F 26.7 °F 23.0 °F 75% 29.86 in 10.0 mi SSE 3.5 mph - N/A   Scattered Clouds
4:55 AM 30.2 °F - 23.0 °F 75% 29.87 in 10.0 mi Calm Calm - N/A   Scattered Clouds
5:15 AM 30.2 °F - 21.2 °F 69% 29.87 in 10.0 mi Calm Calm - N/A   Overcast
5:35 AM 30.2 °F - 23.0 °F 75% 29.87 in 10.0 mi Calm Calm - N/A   Overcast
5:55 AM 30.2 °F - 21.2 °F 69% 29.87 in 10.0 mi Calm Calm - N/A   Overcast
6:15 AM 30.2 °F - 21.2 °F 69% 29.87 in 10.0 mi Calm Calm - N/A   Overcast
6:35 AM 30.2 °F - 19.4 °F 64% 29.88 in 10.0 mi Calm Calm - N/A   Overcast
6:47 AM 28.4 °F - 21.2 °F 74% 29.88 in 7.0 mi Calm Calm - N/A   Scattered Clouds
6:55 AM 30.2 °F - 21.2 °F 69% 29.88 in 10.0 mi Calm Calm - N/A   Overcast
7:48 AM 26.6 °F - 19.4 °F 74% 29.89 in 7.0 mi Calm Calm - N/A   Scattered Clouds
8:50 AM 28.4 °F - 19.4 °F 69% 29.90 in 10.0 mi Calm Calm - N/A   Scattered Clouds
9:47 AM 30.2 °F - 15.8 °F 55% 29.89 in 10.0 mi Calm Calm - N/A   Partly Cloudy
10:47 AM 35.6 °F 30.7 °F 19.4 °F 52% 29.89 in 10.0 mi SE 5.8 mph - N/A   Partly Cloudy
11:47 AM 39.2 °F 35.0 °F 17.6 °F 42% 29.88 in 10.0 mi ESE 5.8 mph - N/A   Scattered Clouds
12:50 PM 39.2 °F 34.2 °F 12.2 °F 33% 29.86 in 10.0 mi SE 6.9 mph - N/A   Scattered Clouds
1:47 PM 41.0 °F 34.3 °F 10.4 °F 29% 29.85 in 10.0 mi SSW 11.5 mph 19.6 mph N/A   Scattered Clouds
2:47 PM 42.8 °F 38.0 °F 12.2 °F 29% 29.83 in 10.0 mi South 8.1 mph - N/A   Scattered Clouds
3:50 PM 42.8 °F - 15.8 °F 34% 29.82 in 7.0 mi Calm Calm - N/A   Scattered Clouds
4:50 PM 42.8 °F 38.6 °F 14.0 °F 31% 29.81 in 7.0 mi SW 6.9 mph - N/A   Partly Cloudy
5:47 PM 42.8 °F - 10.4 °F 27% 29.80 in 7.0 mi Calm Calm - N/A   Partly Cloudy
6:47 PM 41.0 °F - 8.6 °F 26% 29.79 in 7.0 mi Calm Calm - N/A   Clear
8:50 PM 39.2 °F - 8.6 °F 28% 29.76 in 10.0 mi Calm Calm - N/A   Clear
9:47 PM 37.4 °F 32.1 °F 10.4 °F 33% 29.76 in 10.0 mi NW 6.9 mph - N/A   Clear
10:47 PM 35.6 °F 29.9 °F 12.2 °F 38% 29.76 in 10.0 mi NW 6.9 mph - N/A   Scattered Clouds
11:15 PM 33.8 °F 27.7 °F 12.2 °F 41% 29.76 in 10.0 mi WNW 6.9 mph - N/A   Overcast
11:35 PM 33.8 °F 26.4 °F 12.2 °F 41% 29.76 in 10.0 mi NW 9.2 mph - N/A   Overcast
11:55 PM 33.8 °F 26.4 °F 12.2 °F 41% 29.75 in 10.0 mi NW 9.2 mph - N/A   Overcast